194P/LINEAR (2000)

Japanese version
Home page
Total 6,336 html files since Dec. 4, 1995
Updated on November 28, 2007

---------------------------------------------------------------------

* Profile

Designation 194P/2000 B3
Discovery Date January 27, 2000
Magnitude 18.9 mag
Discoverer Lincoln Laboratory Near-Earth Asteroid Research project

* Orbital Elements

                    Epoch = 2000 Feb. 26.0 TT
     T = 2000 Feb. 14.1600 TT         Peri. = 130.5069
     e = 0.575215                     Node  = 352.1471  2000.0
     q = 1.700254 AU                  Incl. =  11.1263
       a =  4.002627 AU    n = 0.1230797    P =   8.008 years

* Finding Charts

* Magnitudes Graph

        m1 = 17   + 5 log d + 10 log r          [   ,-20]  (             - 2000 Jan. 25)
        m1 = -4.5 + 5 log d + 85 log r(t - 69)  [-20,   ]  (2000 Jan. 25 -             )

---------------------------------------------------------------------

The orbital elements are printed on IAUC 8900.
The charts are made with StellaNavigator Ver.2.0 for Windows (AstroArts / ASCII).
The magnitudes graphs are made with Comet for Windows.

---------------------------------------------------------------------

Copyright(C) 1995-2008 Seiichi Yoshida (comet@aerith.net). All rights reserved.